GSAT0205 (GALILEO 9)

Last updated on Jan. 13, 2021, 8:37 a.m. UTC

1 40889U 15045A   21011.58052705 -.00000005  00000-0  00000+0 0  9996
2 40889  55.9911 276.3684 0005730   9.5856 350.4907  1.70474523 33215
UTC
Height (km)
Latitude
Longitude
Inclination
Orbital Period
UTC large
Height (km)
Speed (km/s)
/
Latitude / Longitude
Inclination (degrees)
Orbital Period (minutes)
Azimuth
Elevation
Range (km)
Doppler Factor
iOS Compass Heading
iOS Angle

Next 30 passes for location: Hong Kong

Rise time Rise Azimuth (degrees) Set time Set Azimuth (degrees) Duration Max altitude (degrees)

No matching passes for this satellites